When you browse on this site, cookies collect data to enhance your experience and personalize the content and advertising you see.
Visit our Privacy Policy to learn more. By continuing to use the site, you agree to this use of cookies and data.
  • In Portugal
  • List of Countries
  • For 7 days
  • Water Temperature
  • Weather Map
  • Weather Widgets
  • user-avatar
    Login

    Hourly Weather Kalat

    Today, 29 May, Friday

    Time Temperature Precipitation Wind Pressure Humidity
    00:00 +3°C° 0.3 mm 1 mps 475 mmHg 93%
    01:00 +3°C° 0.3 mm 1 mps 474 mmHg 91%
    02:00 +1°C° 0.3 mm 0 mps 474 mmHg 90%
    03:00 +1°C° 0 mm 0 mps 474 mmHg 88%
    04:00 +1°C° 0 mm 0 mps 474 mmHg 87%
    05:00 +1°C° 0 mm 0 mps 474 mmHg 86%
    06:00 +3°C° 0 mm 1 mps 474 mmHg 83%
    07:00 +3°C° 0 mm 1 mps 475 mmHg 81%
    08:00 +4°C° 0 mm 1 mps 476 mmHg 79%
    09:00 +5°C° 0 mm 1 mps 477 mmHg 75%
    10:00 +6°C° 0 mm 1 mps 477 mmHg 72%
    11:00 +7°C° 0 mm 1 mps 478 mmHg 68%
    12:00 +7°C° 0.3 mm 1 mps 478 mmHg 66%
    13:00 +7°C° 0.3 mm 2 mps 478 mmHg 63%
    14:00 +8°C° 0.3 mm 2 mps 478 mmHg 61%
    15:00 +7°C° 0.8 mm 3 mps 478 mmHg 67%
    16:00 +5°C° 0.8 mm 3 mps 477 mmHg 72%
    17:00 +5°C° 0.8 mm 4 mps 477 mmHg 78%
    18:00 +4°C° 1 mm 3 mps 476 mmHg 78%
    19:00 +4°C° 1 mm 2 mps 476 mmHg 79%
    20:00 +3°C° 1 mm 2 mps 475 mmHg 80%
    21:00 +4°C° 0 mm 1 mps 475 mmHg 80%
    22:00 +3°C° 0 mm 1 mps 475 mmHg 80%
    23:00 +3°C° 0 mm 1 mps 474 mmHg 79%

    Tomorrow, 30 May, Saturday

    Time Temperature Precipitation Wind Pressure Humidity
    00:00 +2°C° 0 mm 1 mps 474 mmHg 79%
    01:00 +2°C° 0 mm 1 mps 474 mmHg 79%
    02:00 +2°C° 0 mm 1 mps 473 mmHg 79%
    03:00 +2°C° 0 mm 1 mps 473 mmHg 78%
    04:00 +1°C° 0 mm 1 mps 473 mmHg 78%
    05:00 +1°C° 0 mm 1 mps 473 mmHg 78%
    06:00 +2°C° 0 mm 1 mps 474 mmHg 73%
    07:00 +3°C° 0 mm 1 mps 475 mmHg 69%
    08:00 +4°C° 0 mm 1 mps 476 mmHg 65%
    09:00 +5°C° 0 mm 1 mps 476 mmHg 62%
    10:00 +6°C° 0 mm 1 mps 477 mmHg 59%
    11:00 +7°C° 0 mm 1 mps 478 mmHg 56%
    12:00 +7°C° 0.1 mm 1 mps 478 mmHg 54%
    13:00 +7°C° 0.1 mm 2 mps 479 mmHg 53%
    14:00 +8°C° 0.1 mm 2 mps 479 mmHg 52%
    15:00 +8°C° 0.2 mm 3 mps 479 mmHg 55%
    16:00 +7°C° 0.2 mm 3 mps 478 mmHg 58%
    17:00 +6°C° 0.2 mm 4 mps 478 mmHg 61%
    18:00 +5°C° 0.2 mm 4 mps 478 mmHg 66%
    19:00 +4°C° 0.2 mm 3 mps 477 mmHg 70%
    20:00 +3°C° 0.2 mm 3 mps 477 mmHg 74%
    21:00 +3°C° 0 mm 3 mps 477 mmHg 76%
    22:00 +3°C° 0 mm 2 mps 476 mmHg 78%
    23:00 +2°C° 0 mm 2 mps 476 mmHg 80%

    Day after tomorrow, 31 May, Sunday

    Time Temperature Precipitation Wind Pressure Humidity
    00:00 +2°C° 0 mm 2 mps 476 mmHg 79%
    01:00 +2°C° 0 mm 2 mps 475 mmHg 78%
    02:00 +1°C° 0 mm 2 mps 475 mmHg 77%
    03:00 +2°C° 0 mm 1 mps 475 mmHg 76%
    04:00 +2°C° 0 mm 1 mps 475 mmHg 75%
    05:00 +2°C° 0 mm 1 mps 474 mmHg 74%
    06:00 +2°C° 0 mm 1 mps 475 mmHg 67%
    07:00 +3°C° 0 mm 1 mps 476 mmHg 61%
    08:00 +4°C° 0 mm 1 mps 477 mmHg 55%
    09:00 +5°C° 0 mm 1 mps 477 mmHg 50%
    10:00 +5°C° 0 mm 2 mps 478 mmHg 45%
    11:00 +7°C° 0 mm 2 mps 479 mmHg 40%
    12:00 +7°C° 0 mm 2 mps 479 mmHg 40%
    13:00 +8°C° 0 mm 3 mps 480 mmHg 39%
    14:00 +9°C° 0 mm 3 mps 480 mmHg 39%
    15:00 +9°C° 0 mm 3 mps 480 mmHg 40%
    16:00 +8°C° 0 mm 4 mps 480 mmHg 42%
    17:00 +8°C° 0 mm 4 mps 479 mmHg 44%
    18:00 +7°C° 0 mm 4 mps 479 mmHg 49%
    19:00 +5°C° 0 mm 3 mps 478 mmHg 55%
    20:00 +4°C° 0 mm 3 mps 478 mmHg 61%
    21:00 +4°C° 0 mm 3 mps 477 mmHg 63%
    22:00 +4°C° 0 mm 2 mps 477 mmHg 66%
    23:00 +4°C° 0 mm 2 mps 477 mmHg 68%

    1 June, Monday

    Time Temperature Precipitation Wind Pressure Humidity
    00:00 +3°C° 0 mm 2 mps 477 mmHg 69%
    01:00 +3°C° 0 mm 2 mps 476 mmHg 69%
    02:00 +2°C° 0 mm 2 mps 476 mmHg 70%
    03:00 +3°C° 0 mm 1 mps 475 mmHg 69%
    04:00 +3°C° 0 mm 1 mps 475 mmHg 69%
    05:00 +2°C° 0 mm 1 mps 475 mmHg 68%
    06:00 +3°C° 0 mm 1 mps 476 mmHg 60%
    07:00 +4°C° 0 mm 1 mps 476 mmHg 53%
    08:00 +4°C° 0 mm 2 mps 477 mmHg 45%
    09:00 +5°C° 0 mm 2 mps 478 mmHg 40%
    10:00 +6°C° 0 mm 2 mps 479 mmHg 35%
    11:00 +7°C° 0 mm 2 mps 479 mmHg 30%
    12:00 +8°C° 0 mm 3 mps 480 mmHg 30%
    13:00 +9°C° 0 mm 3 mps 480 mmHg 29%
    14:00 +10°C° 0 mm 4 mps 481 mmHg 29%
    15:00 +8°C° 0 mm 4 mps 480 mmHg 30%
    16:00 +8°C° 0 mm 4 mps 480 mmHg 31%
    17:00 +8°C° 0 mm 4 mps 480 mmHg 33%
    18:00 +7°C° 0 mm 4 mps 479 mmHg 37%
    19:00 +6°C° 0 mm 4 mps 479 mmHg 42%
    20:00 +5°C° 0 mm 3 mps 478 mmHg 47%
    21:00 +4°C° 0 mm 3 mps 478 mmHg 50%
    22:00 +3°C° 0 mm 3 mps 477 mmHg 54%
    23:00 +4°C° 0 mm 2 mps 477 mmHg 57%

    2 June, Tuesday

    Time Temperature Precipitation Wind Pressure Humidity
    00:00 +3°C° 0 mm 2 mps 477 mmHg 58%
    01:00 +3°C° 0 mm 2 mps 476 mmHg 60%
    02:00 +2°C° 0 mm 2 mps 475 mmHg 61%
    03:00 +2°C° 0 mm 2 mps 475 mmHg 61%
    04:00 +2°C° 0 mm 2 mps 475 mmHg 61%
    05:00 +1°C° 0 mm 2 mps 475 mmHg 61%
    06:00 +2°C° 0 mm 2 mps 475 mmHg 54%
    07:00 +3°C° 0 mm 2 mps 476 mmHg 47%
    08:00 +4°C° 0 mm 2 mps 477 mmHg 40%
    09:00 +5°C° 0 mm 2 mps 477 mmHg 37%
    10:00 +6°C° 0 mm 2 mps 478 mmHg 34%
    11:00 +7°C° 0 mm 2 mps 479 mmHg 31%
    12:00 +8°C° 0 mm 2 mps 479 mmHg 30%
    13:00 +9°C° 0 mm 3 mps 480 mmHg 30%
    14:00 +10°C° 0 mm 3 mps 480 mmHg 30%
    15:00 +10°C° 0 mm 3 mps 480 mmHg 32%
    16:00 +10°C° 0 mm 4 mps 480 mmHg 34%
    17:00 +10°C° 0 mm 4 mps 480 mmHg 36%
    18:00 +8°C° 0 mm 4 mps 479 mmHg 42%
    19:00 +7°C° 0 mm 4 mps 479 mmHg 48%
    20:00 +7°C° 0 mm 3 mps 478 mmHg 53%
    21:00 +5°C° 0 mm 3 mps 478 mmHg 57%
    22:00 +4°C° 0 mm 3 mps 477 mmHg 60%
    23:00 +5°C° 0 mm 2 mps 477 mmHg 63%

    3 June, Wednesday

    Time Temperature Precipitation Wind Pressure Humidity
    00:00 +4°C° 0 mm 2 mps 477 mmHg 65%
    01:00 +4°C° 0 mm 2 mps 476 mmHg 67%
    02:00 +3°C° 0 mm 2 mps 475 mmHg 68%
    03:00 +3°C° 0 mm 2 mps 475 mmHg 69%
    04:00 +2°C° 0 mm 2 mps 475 mmHg 70%
    05:00 +3°C° 0 mm 1 mps 475 mmHg 70%
    06:00 +4°C° 0 mm 1 mps 475 mmHg 62%
    07:00 +4°C° 0 mm 2 mps 476 mmHg 54%
    08:00 +4°C° 0 mm 2 mps 477 mmHg 45%
    09:00 +6°C° 0 mm 2 mps 477 mmHg 41%
    10:00 +7°C° 0 mm 2 mps 478 mmHg 37%
    11:00 +8°C° 0 mm 2 mps 479 mmHg 32%
    12:00 +9°C° 0 mm 3 mps 479 mmHg 32%
    13:00 +10°C° 0 mm 3 mps 480 mmHg 32%
    14:00 +10°C° 0 mm 3 mps 480 mmHg 32%
    15:00 +10°C° 0.1 mm 4 mps 480 mmHg 37%
    16:00 +10°C° 0.1 mm 4 mps 480 mmHg 42%
    17:00 +10°C° 0.1 mm 4 mps 479 mmHg 47%
    18:00 +8°C° 0.1 mm 4 mps 479 mmHg 52%
    19:00 +7°C° 0.1 mm 4 mps 478 mmHg 58%
    20:00 +7°C° 0.1 mm 3 mps 478 mmHg 64%
    21:00 +5°C° 0 mm 3 mps 478 mmHg 65%
    22:00 +5°C° 0 mm 3 mps 478 mmHg 67%
    23:00 +5°C° 0 mm 2 mps 478 mmHg 68%
    Show more